Location: Newark
(32.9533°N, 113.4900°W)
Time: 17:24:01
(UTC+00:00)

Envisat - Pass Details

Date: 27 October 2019
Orbit: 764 x 766 km, 98.1° (Epoch: 19 November)

Event Time Altitude Azimuth Distance (km) Brightness Sun altitude
Rises 01:23:59 0° 156° (SSE) 3,217 6.1 -8.1°
Reaches altitude 10° 01:26:18 10° 152° (SSE) 2,295 5.3 -8.6°
Maximum altitude 01:31:15 58° 74° (ENE) 893 3.0 -9.6°
Drops below altitude 10° 01:36:14 10° 357° (N) 2,307 5.4 -10.6°
Sets 01:38:34 0° 353° (N) 3,236 6.2 -11.1°
